Weather History for Leesburg, FL

Change the Weather History Date:

Wednesday, February 6, 2013

  Actual Average Record
Temperature  
Mean Temperature 66 °F -  
Max Temperature 75 °F 70 °F 84 °F (2004)
Min Temperature 57 °F 47 °F 26 °F (1966)
Cooling Degree Days 1    
Growing Degree Days 16 (Base 50)    
Moisture  
Dew Point 57 °F    
Average Humidity 71    
Maximum Humidity 87    
Minimum Humidity 51    
Precipitation  
Precipitation 0.00 in - - ()
Sea Level Pressure  
Sea Level Pressure 30.10 in    
Wind  
Wind Speed 3 mph (ENE)    
Max Wind Speed 10 mph    
Max Gust Speed -    
Visibility 10 miles    
Events      
Averages and records for this station are not official NWS values.
T = Trace of Precipitation, MM = Missing Value Source: NWS Daily Summary

Daily Weather History Graph

Daily Weather History Graph

Search for Another Location

Airport:

Trip Planner

Search our weather history database for the weather conditions in past years. The results will help you decide how hot, cold, wet, or windy it might be!

Date:

Astronomy

Feb. 06, 2013 Rise Set
Actual Time 7:12 AM EST 6:10 PM EST
Civil Twilight 6:47 AM EST 6:35 PM EST
Nautical Twilight 6:19 AM EST 7:03 PM EST
Astronomical Twilight 5:52 AM EST 7:31 PM EST
Moon 3:45 AM EST (2/6) 2:36 PM EST (2/6)
Length of Visible Light 11h 47m
Length of Day
10h 58m
Waning Crescent, 17% of the Moon is Illuminated
Feb 6
Waning Crescent
Feb 10
New
Feb 17
First Quarter
Feb 25
Full
Mar 4
Last Quarter

Hourly Weather History & Observations

Time (EST) Temp. Dew Point Humidity Pressure Visibility Wind Dir Wind Speed Gust Speed Precip Events Conditions
12:53 AM 61.0 °F 54.0 °F 78% 30.07 in 10.0 mi Calm Calm - N/A   Clear
2:53 AM 60.1 °F 53.1 °F 78% 30.06 in 10.0 mi Calm Calm - N/A   Overcast
3:53 AM 61.0 °F 54.0 °F 78% 30.06 in 10.0 mi Calm Calm - N/A   Mostly Cloudy
4:53 AM 60.1 °F 54.0 °F 80% 30.06 in 10.0 mi Calm Calm - N/A   Scattered Clouds
5:53 AM 57.9 °F 54.0 °F 87% 30.07 in 10.0 mi Calm Calm - N/A   Overcast
6:53 AM 57.9 °F 54.0 °F 87% 30.09 in 10.0 mi Calm Calm - N/A   Partly Cloudy
7:53 AM 61.0 °F 53.1 °F 75% 30.10 in 10.0 mi ENE 6.9 mph - N/A   Mostly Cloudy
8:53 AM 63.0 °F 54.0 °F 72% 30.12 in 10.0 mi Calm Calm - N/A   Overcast
9:53 AM 66.0 °F 54.0 °F 65% 30.14 in 10.0 mi ENE 4.6 mph - N/A   Overcast
10:53 AM 68.0 °F 54.0 °F 61% 30.14 in 10.0 mi North 5.8 mph - N/A   Overcast
11:53 AM 69.1 °F 55.9 °F 63% 30.14 in 10.0 mi ENE 4.6 mph - N/A   Overcast
12:53 PM 72.0 °F 57.0 °F 59% 30.12 in 10.0 mi NE 4.6 mph - N/A   Overcast
1:53 PM 75.0 °F 57.9 °F 55% 30.09 in 10.0 mi SSE 4.6 mph - N/A   Overcast
2:53 PM 75.0 °F 55.9 °F 51% 30.08 in 10.0 mi ESE 3.5 mph - N/A   Overcast
3:53 PM 75.0 °F 57.0 °F 53% 30.08 in 10.0 mi Calm Calm - N/A   Overcast
4:53 PM 75.0 °F 57.0 °F 53% 30.07 in 10.0 mi NNE 3.5 mph - N/A   Overcast
5:53 PM 72.0 °F 61.0 °F 68% 30.08 in 10.0 mi NE 9.2 mph - N/A   Overcast
6:53 PM 71.1 °F 60.1 °F 68% 30.08 in 10.0 mi NE 6.9 mph - N/A   Overcast
7:53 PM 69.1 °F 61.0 °F 75% 30.09 in 10.0 mi ENE 8.1 mph - N/A   Overcast
8:53 PM 68.0 °F 61.0 °F 78% 30.11 in 10.0 mi ENE 10.4 mph - N/A   Overcast
9:53 PM 66.9 °F 61.0 °F 81% 30.12 in 10.0 mi NE 8.1 mph - N/A   Overcast
10:53 PM 66.9 °F 61.0 °F 81% 30.12 in 10.0 mi ENE 8.1 mph - N/A   Overcast
11:53 PM 66.0 °F 61.0 °F 84% 30.11 in 10.0 mi ENE 5.8 mph - N/A   Overcast